Fort George G Meade, MD

5:37 AM EST on February 26, 2017 (GMT -0500)
Tipton

Weather History for KFME - October, 2012

Change the Weather History Date:

Monday, October 8, 2012

  Actual Average (KBWI) Record (KBWI)
Temperature  
Mean Temperature 44 °F -  
Max Temperature 53 °F 69 °F 91 °F (2007)
Min Temperature 35 °F 47 °F 31 °F (2001)
Degree Days  
Heating Degree Days 21    
Moisture  
Dew Point 40 °F    
Average Humidity 83    
Maximum Humidity 100    
Minimum Humidity 58    
Precipitation  
Precipitation 0.00 in - - ()
Sea Level Pressure  
Sea Level Pressure 30.26 in    
Wind  
Wind Speed 1 mph (North)    
Max Wind Speed 6 mph    
Max Gust Speed -    
Visibility 7 miles    
Events      
Averages and records for this station are not official NWS values.
T = Trace of Precipitation, MM = Missing Value Source: NWS Daily Summary

Daily Weather History Graph

Daily Weather History Graph

Search for Another Location

Airport or City:

Trip Planner

Search our weather history database for the weather conditions in past years. The results will help you decide how hot, cold, wet, or windy it might be!

Date:

Astronomy

Oct. 08, 2012 Rise Set
Actual Time 7:10 AM EDT 6:38 PM EDT
Civil Twilight 6:43 AM EDT 7:04 PM EDT
Nautical Twilight 6:12 AM EDT 7:35 PM EDT
Astronomical Twilight 5:41 AM EDT 8:06 PM EDT
Moon No Moon Rise 2:23 PM EDT (10/8)
Length of Visible Light 12h 21m
Length of Day
11h 27m
Waning Gibbous, 46% of the Moon is Illuminated
Oct 8
Waning Gibbous
Oct 15
New
Oct 21
First Quarter
Oct 29
Full
Nov 6
Last Quarter

Hourly Weather History & Observations

Time (EDT) Temp. Windchill Dew Point Humidity Pressure Visibility Wind Dir Wind Speed Gust Speed Precip Events Conditions
12:00 AM 41.0 °F - 39.2 °F 93% 30.19 in 1.0 mi Calm Calm - N/A   Unknown
12:21 AM 41.0 °F - 39.2 °F 93% 30.19 in 2.0 mi Calm Calm - N/A   Clear
12:42 AM 41.0 °F - 41.0 °F 100% 30.20 in 2.0 mi Calm Calm - N/A   Clear
1:06 AM 41.0 °F - 39.2 °F 93% 30.21 in 2.5 mi Calm Calm - N/A   Clear
1:27 AM 39.2 °F - 37.4 °F 93% 30.21 in 1.5 mi Calm Calm - N/A   Unknown
1:48 AM 37.4 °F - 37.4 °F 100% 30.22 in 0.5 mi Calm Calm - N/A   Unknown
2:09 AM 39.2 °F - 37.4 °F 93% 30.22 in 1.5 mi Calm Calm - N/A   Unknown
2:30 AM 37.4 °F - 37.4 °F 100% 30.22 in 1.8 mi Calm Calm - N/A   Unknown
2:51 AM 37.4 °F - 35.6 °F 93% 30.21 in 1.0 mi Calm Calm - N/A   Unknown
3:12 AM 37.4 °F - 37.4 °F 100% 30.21 in 2.0 mi Calm Calm - N/A   Clear
3:33 AM 37.4 °F - 35.6 °F 93% 30.21 in 0.8 mi Calm Calm - N/A   Unknown
3:54 AM 35.6 °F - 35.6 °F 100% 30.21 in 1.0 mi Calm Calm - N/A   Unknown
4:18 AM 35.6 °F - 35.6 °F 100% 30.21 in 2.0 mi Calm Calm - N/A   Clear
4:39 AM 37.4 °F - 35.6 °F 93% 30.23 in 2.5 mi Calm Calm - N/A   Clear
5:00 AM 35.6 °F - 35.6 °F 100% 30.24 in 2.0 mi Calm Calm - N/A   Clear
5:21 AM 35.6 °F - 35.6 °F 100% 30.24 in 0.5 mi Calm Calm - N/A   Unknown
5:42 AM 35.6 °F - 33.8 °F 93% 30.25 in 2.0 mi Calm Calm - N/A   Clear
6:03 AM 37.4 °F - 37.4 °F 100% 30.25 in 2.0 mi Calm Calm - N/A   Clear
6:24 AM 37.4 °F - 37.4 °F 100% 30.25 in 3.0 mi Calm Calm - N/A   Clear
6:45 AM 37.4 °F - 35.6 °F 93% 30.25 in 4.0 mi Calm Calm - N/A   Clear
7:06 AM 37.4 °F - 37.4 °F 100% 30.27 in 2.5 mi Calm Calm - N/A   Clear
7:51 AM 39.2 °F - 39.2 °F 100% 30.29 in 1.2 mi Calm Calm - N/A   Unknown
8:12 AM 41.0 °F - 39.2 °F 93% 30.29 in 2.0 mi Calm Calm - N/A   Clear
8:33 AM 42.8 °F - 41.0 °F 93% 30.30 in 7.0 mi Calm Calm - N/A   Clear
8:54 AM 42.8 °F 41.1 °F 41.0 °F 93% 30.30 in 10.0 mi NNE 3.5 mph - N/A   Scattered Clouds
9:15 AM 42.8 °F - 41.0 °F 93% 30.31 in 10.0 mi Calm Calm - N/A   Scattered Clouds
9:36 AM 44.6 °F - 41.0 °F 87% 30.31 in 10.0 mi Calm Calm - N/A   Clear
9:57 AM 44.6 °F - 41.0 °F 87% 30.31 in 10.0 mi Calm Calm - N/A   Clear
10:18 AM 46.4 °F 45.2 °F 41.0 °F 81% 30.31 in 10.0 mi NNE 3.5 mph - N/A   Clear
10:39 AM 46.4 °F - 41.0 °F 81% 30.31 in 10.0 mi Calm Calm - N/A   Scattered Clouds
11:00 AM 46.4 °F - 41.0 °F 81% 30.31 in 10.0 mi Calm Calm - N/A   Overcast
11:21 AM 48.2 °F - 42.8 °F 82% 30.30 in 10.0 mi East 4.6 mph - N/A   Overcast
11:42 AM 46.4 °F - 42.8 °F 87% 30.31 in 10.0 mi Calm Calm - N/A   Mostly Cloudy
12:06 PM 48.2 °F - 41.0 °F 76% 30.32 in 10.0 mi Calm Calm - N/A   Mostly Cloudy
12:27 PM 50.0 °F - 41.0 °F 71% 30.32 in 10.0 mi North 5.8 mph - N/A   Overcast
12:48 PM 50.0 °F - 41.0 °F 71% 30.32 in 10.0 mi Calm Calm - N/A   Overcast
1:09 PM 51.8 °F - 41.0 °F 67% 30.31 in 10.0 mi Calm Calm - N/A   Scattered Clouds
1:30 PM 51.8 °F - 41.0 °F 67% 30.30 in 10.0 mi Calm Calm - N/A   Scattered Clouds
1:51 PM 51.8 °F - 41.0 °F 67% 30.28 in 10.0 mi ENE 4.6 mph - N/A   Mostly Cloudy
2:12 PM 51.8 °F - 39.2 °F 62% 30.27 in 10.0 mi North 4.6 mph - N/A   Overcast
2:33 PM 51.8 °F - 39.2 °F 62% 30.28 in 10.0 mi North 4.6 mph - N/A   Overcast
2:54 PM 51.8 °F - 41.0 °F 67% 30.29 in 10.0 mi NNW 5.8 mph - N/A   Overcast
3:36 PM 53.6 °F - 39.2 °F 58% 30.28 in 10.0 mi North 3.5 mph - N/A   Mostly Cloudy
3:57 PM 51.8 °F - 39.2 °F 62% 30.29 in 10.0 mi North 4.6 mph - N/A   Mostly Cloudy
4:21 PM 51.8 °F - 37.4 °F 58% 30.29 in 10.0 mi Calm Calm - N/A   Overcast
4:42 PM 51.8 °F - 37.4 °F 58% 30.27 in 10.0 mi NW 3.5 mph - N/A   Mostly Cloudy
5:03 PM 51.8 °F - 41.0 °F 67% 30.27 in 10.0 mi North 3.5 mph - N/A   Overcast
5:24 PM 51.8 °F - 41.0 °F 67% 30.25 in 10.0 mi NNE 5.8 mph - N/A   Mostly Cloudy
5:45 PM 51.8 °F - 41.0 °F 67% 30.25 in 10.0 mi North 5.8 mph - N/A   Mostly Cloudy
6:06 PM 51.8 °F - 41.0 °F 67% 30.26 in 10.0 mi NNW 3.5 mph - N/A   Overcast
6:48 PM 50.0 °F - 39.2 °F 66% 30.25 in 10.0 mi Calm Calm - N/A   Overcast
7:09 PM 50.0 °F - 41.0 °F 71% 30.26 in 10.0 mi North 4.6 mph - N/A   Overcast
7:30 PM 50.0 °F - 41.0 °F 71% 30.26 in 10.0 mi North 4.6 mph - N/A   Overcast
7:51 PM 50.0 °F - 41.0 °F 71% 30.26 in 10.0 mi North 3.5 mph - N/A   Overcast
8:57 PM 48.2 °F - 41.0 °F 76% 30.25 in 10.0 mi North 4.6 mph - N/A   Overcast
9:18 PM 48.2 °F - 42.8 °F 82% 30.24 in 10.0 mi Calm Calm - N/A   Overcast
9:39 PM 48.2 °F - 42.8 °F 82% 30.24 in 10.0 mi NNE 4.6 mph - N/A   Overcast
10:00 PM 48.2 °F - 41.0 °F 76% 30.24 in 10.0 mi NNE 4.6 mph - N/A   Overcast
10:21 PM 48.2 °F - 41.0 °F 76% 30.24 in 10.0 mi North 5.8 mph - N/A   Overcast
11:03 PM 48.2 °F - 42.8 °F 82% 30.24 in 10.0 mi Calm Calm - N/A   Overcast
11:24 PM 48.2 °F - 42.8 °F 82% 30.23 in 10.0 mi North 3.5 mph - N/A   Overcast
11:45 PM 48.2 °F - 42.8 °F 82% 30.23 in 10.0 mi Calm Calm - N/A   Overcast